DateTimeUTC,F1_A11,F1_S11,BsB_S11,BsG_S11,BsR_S11,BbsB_S11,BbsG_S11,BbsR_S11,BaB_A11,BaG_A11,BaR_A11,Tu_S11,T_S11,Uu_S11,U_S11,P_S11,T1_A11
2021-05-14T11:00:00Z,00040200,21000000,,,,,,,0000.29,0000.01,-000.07,15.6,22.7,,00.0,0673.3,30.8
2021-05-14T11:01:00Z,00040200,21000000,,,,,,,0000.64,0000.68,0000.17,15.6,22.7,,00.0,0673.3,30.8
2021-05-14T11:02:00Z,00040200,21000000,,,,,,,0000.64,0000.77,0000.92,15.6,22.7,,00.0,0673.3,30.8
2021-05-14T11:03:00Z,00040200,61000000,,,,,,,0002.22,0001.89,0001.15,15.6,22.7,,00.0,0673.3,30.8
2021-05-14T11:04:00Z,00040200,41000000,0002.76,0001.46,0000.99,-000.05,0000.27,0000.20,0001.15,0001.03,0000.89,15.7,22.4,,00.0,0674.2,30.8
2021-05-14T11:05:00Z,00040200,01000000,0002.79,0001.84,0000.91,-000.11,0000.30,0000.11,0001.06,0000.62,0000.28,15.7,22.4,,00.0,0674.3,30.7
2021-05-14T11:06:00Z,00040200,01000000,0001.60,0001.83,0000.83,0000.06,0000.18,0000.17,0000.09,0000.56,0000.90,15.7,22.3,,00.0,0674.3,30.7
2021-05-14T11:07:00Z,00040200,01000000,0002.70,0001.82,0000.88,0000.10,0000.14,0000.20,0000.38,0000.43,0000.08,15.7,22.3,,00.0,0674.3,30.7
2021-05-14T11:08:00Z,00040200,01000000,0002.61,0001.94,0000.98,0000.27,0000.11,0000.45,0001.07,0000.78,0000.65,15.6,22.3,,00.0,0674.3,30.7
2021-05-14T11:09:00Z,00040200,01000000,0002.34,0001.60,0001.03,0000.51,0000.13,0000.08,0001.08,0000.62,0000.54,15.6,22.2,,00.0,0674.3,30.7
2021-05-14T11:10:00Z,00040200,01000000,0002.58,0001.74,0000.86,0000.37,0000.21,0000.16,0000.88,0001.26,0000.81,15.6,22.2,,00.0,0674.4,30.7
2021-05-14T11:11:00Z,00040200,01000000,0003.35,0001.61,0000.96,0000.52,0000.23,-000.15,0000.94,0000.73,0000.35,15.7,22.2,,00.0,0674.4,30.8
2021-05-14T11:12:00Z,00040200,01000000,0002.42,0001.70,0000.84,0000.33,0000.13,0000.06,0000.87,0000.63,0000.86,15.7,22.2,,00.0,0674.4,30.8
2021-05-14T11:13:00Z,00040200,01000000,0001.69,0001.62,0000.74,0000.37,0000.07,0000.16,0000.62,0000.83,0000.80,15.8,22.3,,00.0,0674.4,30.8
2021-05-14T11:14:00Z,00040200,01000000,0001.67,0001.30,0000.63,0000.03,0000.26,0000.11,0000.93,0000.63,-000.03,15.8,22.3,,00.0,0674.4,30.8
2021-05-14T11:15:00Z,00040200,01000000,0002.14,0001.26,0000.70,0000.11,0000.23,-000.06,0000.96,0001.21,0001.06,15.9,22.4,,00.0,0674.3,30.9
2021-05-14T11:16:00Z,00040200,01000000,0002.06,0001.44,0000.79,0000.06,0000.23,0000.06,0001.15,0000.61,0000.65,16.0,22.4,,00.0,0674.3,30.9
2021-05-14T11:17:00Z,00040200,01000000,0002.00,0001.37,0000.66,0000.49,0000.16,0000.28,0000.70,0000.79,0000.45,16.0,22.4,,00.0,0674.3,30.9
2021-05-14T11:18:00Z,00040200,01000000,0001.58,0001.55,0000.72,0000.27,0000.22,-000.05,-000.10,-000.03,0000.19,16.0,22.4,00.0,00.0,0674.4,30.8
2021-05-14T11:19:00Z,00040200,01000000,0001.75,0001.37,0000.61,0000.33,0000.32,0000.38,0001.16,0000.84,0000.66,16.0,22.4,,00.0,0674.4,30.8
2021-05-14T11:20:00Z,00040200,01000000,0002.16,0001.48,0000.79,0000.19,0000.36,0000.33,0000.63,0000.61,0000.24,16.0,22.4,,00.0,0674.4,30.8
2021-05-14T11:21:00Z,00040200,01000000,0001.97,0001.63,0000.71,0000.09,0000.13,0000.19,0000.63,0000.87,0000.82,15.9,22.4,,00.0,0674.4,30.8
2021-05-14T11:22:00Z,00040200,01000000,0001.52,0001.68,0000.70,0000.09,0000.18,0000.29,0000.87,0000.49,0000.59,15.9,22.4,,00.0,0674.4,30.8
2021-05-14T11:23:00Z,00040200,01000000,0001.82,0001.43,0000.54,0000.22,0000.23,0000.17,0000.97,0000.92,0000.48,15.9,22.3,,00.0,0674.4,30.8
2021-05-14T11:24:00Z,00040200,01000000,0001.75,0001.63,0000.60,0000.16,0000.56,0000.20,0001.11,0001.11,0000.77,15.8,22.3,,00.0,0674.4,30.8
2021-05-14T11:25:00Z,00040200,01000000,0002.82,0001.74,0000.80,0000.30,0000.32,0000.46,0001.09,0000.73,0000.50,15.8,22.3,,00.0,0674.4,30.8
2021-05-14T11:26:00Z,00040200,01000000,0001.73,0001.37,0000.79,0000.18,0000.40,0000.22,0000.45,0000.31,0000.36,15.9,22.3,,00.0,0674.4,30.8
2021-05-14T11:27:00Z,00040200,01000000,0002.04,0001.42,0000.71,0000.41,0000.25,0000.13,0000.96,0001.49,0001.27,15.9,22.4,00.0,00.0,0674.4,30.8
2021-05-14T11:28:00Z,00040200,01000000,0002.09,0001.61,0000.57,0000.34,0000.28,0000.54,0000.94,0000.03,0000.55,15.9,22.4,,00.0,0674.4,30.8
2021-05-14T11:29:00Z,00040200,01000000,0002.31,0001.39,0000.77,0000.84,0000.28,0000.27,0000.26,0001.08,0000.09,16.0,22.5,00.0,00.0,0674.4,30.8
2021-05-14T11:30:00Z,00040200,01000000,0001.99,0001.50,0000.66,0000.34,0000.35,0000.29,0000.76,0000.50,0000.62,16.0,22.5,,00.0,0674.4,30.8
2021-05-14T11:31:00Z,00040200,01000000,0002.16,0001.57,0000.88,0000.46,0000.20,0000.41,0000.62,0000.60,0000.08,16.0,22.4,,00.0,0674.4,30.8
2021-05-14T11:32:00Z,00040200,01000000,0002.60,0001.75,0000.79,0000.20,0000.15,0000.16,0000.60,0000.38,0000.65,16.0,22.4,,00.0,0674.4,30.8
2021-05-14T11:33:00Z,00040200,01000000,0001.51,0001.46,0000.78,0000.16,0000.40,-000.07,0000.63,0000.64,0000.20,16.0,22.4,,00.0,0674.4,30.8
2021-05-14T11:34:00Z,00040200,01000000,0002.14,0001.55,0000.89,0000.53,0000.36,0000.35,0000.71,0000.43,0000.24,16.0,22.4,,00.0,0674.4,30.8
2021-05-14T11:35:00Z,00040200,01000000,0002.30,0001.80,0000.90,-000.18,0000.12,-000.02,0000.49,0000.69,0000.59,15.9,22.4,,00.0,0674.4,30.8
2021-05-14T11:36:00Z,00040200,01000000,0001.33,0001.41,0000.85,0000.45,0000.14,0000.23,0000.65,0000.51,0000.28,15.9,22.4,,00.0,0674.4,30.8
2021-05-14T11:37:00Z,00040200,01000000,0002.16,0001.45,0000.76,0000.64,0000.21,0000.05,0000.41,0000.55,0000.30,15.9,22.4,,00.0,0674.4,30.8
2021-05-14T11:38:00Z,00040200,01000000,0002.30,0001.46,0000.63,0000.31,0000.04,0000.19,0001.12,0000.65,0000.66,15.9,22.3,,00.0,0674.4,30.8
2021-05-14T11:39:00Z,00040200,01000000,0002.60,0001.57,0000.89,0000.57,0000.17,0000.27,0000.86,0000.91,0000.71,15.9,22.3,,00.0,0674.4,30.8
2021-05-14T11:40:00Z,00040200,01000000,0002.02,0001.39,0001.10,0000.58,0000.26,0000.24,0000.72,0000.48,0000.25,15.9,22.3,,00.0,0674.4,30.8
2021-05-14T11:41:00Z,00040200,01000000,0001.98,0001.30,0000.93,0000.22,-000.03,0000.29,0000.44,0000.89,0000.65,15.9,22.3,,00.0,0674.4,30.8
2021-05-14T11:42:00Z,00040200,01000000,0001.81,0001.16,0000.84,-000.13,0000.21,0000.16,0000.87,0000.30,0000.81,15.9,22.4,,00.0,0674.4,30.8
2021-05-14T11:43:00Z,00040200,01000000,0002.43,0001.47,0000.80,-000.20,-000.00,0000.06,0001.15,0000.88,0000.48,16.0,22.4,00.0,00.0,0674.4,30.9
2021-05-14T11:44:00Z,00040200,01000000,0002.10,0001.22,0000.56,0000.19,0000.26,0000.11,0000.79,0001.04,0000.43,16.0,22.5,,00.0,0674.4,30.9
2021-05-14T11:45:00Z,00040200,01000000,0001.86,0001.45,0000.89,0000.29,0000.27,0000.16,0000.49,0000.65,0000.55,16.1,22.5,00.0,00.0,0674.4,30.9
2021-05-14T11:46:00Z,00040200,01000000,0002.19,0001.47,0000.75,0000.35,0000.06,0000.35,0000.49,0000.47,0000.76,16.1,22.5,,00.0,0674.4,30.9
2021-05-14T11:47:00Z,00040200,01000000,0001.59,0001.06,0000.90,0000.48,0000.23,0000.23,0000.50,0000.49,0000.09,16.2,22.6,,00.0,0674.4,30.9
2021-05-14T11:48:00Z,00040200,01000000,0001.91,0001.34,0000.84,-000.10,0000.42,0000.12,0000.71,0000.69,0000.64,16.2,22.6,,00.0,0674.4,30.9
2021-05-14T11:49:00Z,00040200,01000000,0002.02,0001.23,0000.72,0000.17,0000.49,-000.02,0000.64,0000.46,0000.16,16.2,22.6,,00.0,0674.4,30.9
2021-05-14T11:50:00Z,00040200,01000000,0001.05,0001.19,0000.63,-000.26,0000.25,0000.13,0001.26,0001.15,0000.96,16.2,22.6,,00.0,0674.4,30.8
2021-05-14T11:51:00Z,00040200,01000000,0001.99,0001.12,0000.43,-000.10,0000.33,0000.14,0000.60,0000.48,0000.50,16.2,22.5,,00.0,0674.4,30.8
2021-05-14T11:52:00Z,00040200,01000000,0001.19,0001.20,0000.68,-000.39,0000.24,0000.21,0001.33,0000.82,0000.24,16.1,22.5,,00.0,0674.4,30.8
2021-05-14T11:53:00Z,00040200,01000000,0001.27,0001.33,0000.91,0000.47,0000.26,0000.19,0000.73,0000.87,0000.82,16.1,22.5,00.0,00.0,0674.4,30.8
2021-05-14T11:54:00Z,00040200,01000000,0001.97,0001.34,0000.51,-000.08,0000.07,0000.17,0000.16,0000.37,0000.36,16.1,22.5,,00.0,0674.4,30.8
2021-05-14T11:55:00Z,00040200,01000000,0001.78,0001.29,0000.83,0000.35,0000.27,0000.29,0000.45,0000.18,-000.23,16.1,22.5,,00.0,0674.4,30.8
2021-05-14T11:56:00Z,00040200,01000000,0001.84,0001.19,0000.70,0000.04,0000.29,0000.22,0000.46,0000.68,0000.86,16.2,22.5,,00.0,0674.4,30.8
2021-05-14T11:57:00Z,00040200,41000000,,,,,,,-000.23,-000.47,-000.58,16.3,22.6,,00.0,0674.5,30.8
2021-05-14T11:58:00Z,00040200,61000000,,,,,,,-000.10,0000.25,0000.43,16.0,22.8,,00.0,0673.4,30.8
2021-05-14T11:59:00Z,00040200,21000000,,,,,,,0000.38,0000.09,0000.04,16.0,22.9,,00.0,0673.4,30.8
